Location: Chimay
(50.0486°N, 4.3171°E)
Time: 21:48:57
(UTC+00:00)

Cosmos 1802 Rocket - Pass Details

Date: 08 August 2020
Orbit: 953 x 1012 km, 82.9° (Epoch: 21 September)

Event Time Altitude Azimuth Distance (km) Brightness Sun altitude
Exits shadow 22:58:41 32° 217° (SW) 1,664 4.9 -23.3°
Maximum altitude 23:01:41 60° 284° (WNW) 1,144 4.4 -23.4°
Drops below altitude 10° 23:08:00 10° 4° (N) 2,774 7.4 -23.6°
Sets 23:10:34 0° 8° (N) 3,719 8.3 -23.6°
